Volver al catálogo

THORAD AGENA D DEB

ActivoLEO
NORAD 4776·DEBRIS·🇺🇸 United States

Lanzado Apr 8, 1970 desde Vandenberg Space Force Base

Loading…

Próximos Pases

TLE

Source: Space-Track
1 04776U 70025DW  26218.84922196  .00001264  00000-0  85839-3 0  9997
2 04776 100.1318 179.6659 0013970 246.0972 169.5488 14.02293184744610

Sigue THORAD AGENA D DEB en tiempo real con AllMySat

Download on the App Store